STARLINK-34687, 64909

Orbit data source: Space-Track

STARLINK-34687, 64909 is a payload satellite owned by SpaceX/Seattle (US) in LEO that was launched on Sat, 26 Jul 2025 UTC via an FALCON 9 launch vehicle from the Air Force Eastern Test Range (AFETR). Payload-class satellites include a variety of spacecraft equipped with specific instruments for various scientific and technological missions. These include communications satellites like Starlink; space stations such as the ISS; scientific satellites like the Hubble; Earth observation satellites from companies like Planet Labs, Umbra, and HawkEye 360; GPS; miniature CubeSats for education and research; and military/defense satellites.

Loading next visibility...
Identifier
64909, 2025-157F
Orbit
LEO
Country
Flag of USUS
Related business
Manufacturer
SpaceX/Seattle
Mission
Operational Commercial Communications
Bus & Motor
STARLINK V2MO, Unknown motor
Mass
575 kg wet, ~530 kg dry
Launch date (UTC)
2025-07-26 (10 months ago)
Launch vehicle
FALCON 9
Launch site
Air Force Eastern Test Range (AFETR)
Object type
Payload
Rocket body
Debris
Shape & HBR
Box + 2 Pan, 17.7 m
Radar Cross Section
36.964 m², Large (>1 m²)

Expand to show TLE details & history
Last TLE update: 1 day ago

TLE from 1 day ago
0 STARLINK-34687
1 64909U 25157F   26144.85329182  .00019264  00000-0  66061-3 0  9997
2 64909  53.1599 351.9718 0000979  85.4183 274.6930 15.30211942 47730
Epoch: 2026-05-24T20:28Z
TLE epoch observation values (Epoch: 2026-05-24T20:28:44.413Z)
Latitude
0.00002°
Longitude
162.33729°
Altitude
476.024 km
Speed
7.629 km/s
True Right ascension
23h 27m 53s
True Declination
0° 00' 00"
Sunlit
Object was in daylight at epoch
Visualization orbit readout
Latitude
Unknown
Longitude
Unknown
Altitude
Unknown
Speed
Unknown
Apparent Right ascension
Unknown
Apparent Declination
Unknown
Sunlit
N/A
Visualization observer readout
Local Sidereal Time
06:58:58
Azimuth
Unknown
Elevation
Unknown
Doppler factor
Unknown
Orbital elements
Apogee altitude
476.107 km
Perigee altitude
474.765 km
Semi-major axis
6,853.573 km
Eccentricity
0.0001
Inclination
53.1599°
RAAN
351.9718°
Arg. of periapsis
85.4183°
True anomaly
274.68182°
Mean anomaly
274.693°
Eccentric anomaly
274.68741°
Mean motion
3.82532 °/min
Orbital period
94.11 mins
BSTAR
0.00066061
Loading maneuver chart data...
Computing Atmospheric mass density...
Loading historical data...
Loading historical data...
Loading historical data...
Loading historical data...
Loading historical data...
Loading historical data...
Loading historical data...

Documentation

Showing up to 5 results
|